SL-14 DEB, 45327

Orbit data source: Space-Track

SL-14 DEB, 45327 is space debris in LEO originally from a launch on Thu, 15 Aug 1991 UTC launched from the Plesetsk Missile And Space Complex (PKMTR). Debris objects in space refer to the collection of defunct objects orbiting the Earth. Examples of debris include non-operational satellites, rocket bodies, and fragments generated from explosions, collisions, or faulty payload assembly.

Loading next visibility...
Identifier
45327, 1991-056BR
Orbit
LEO
Country
Flag of CISCIS
Related business
Manufacturer
Unknown
Mission
Spacecraft
Bus & Motor
Unknown
Mass
Unknown
Launch date (UTC)
1991-08-15 (35 years ago)
Launch vehicle
Unknown
Launch site
Plesetsk Missile And Space Complex (PKMTR)
Object type
Payload
Rocket body
Debris
Shape & HBR
Unknown shape, 0.1 m
Radar Cross Section
Small (<0.1 m²)

Expand to show TLE details & history
Last TLE update: 14 hours ago

TLE from 14 hours ago
0 SL-14 DEB
1 45327U 91056BR  26127.97204906  .00001259  00000-0  22276-2 0  9995
2 45327  82.5617 112.1215 0076934 328.9846  30.6758 13.40744764304145
Epoch: 2026-05-07T23:19Z
TLE epoch observation values (Epoch: 2026-05-07T23:19:45.038Z)
Latitude
-0.00004°
Longitude
-103.62669°
Altitude
1,059.93 km
Speed
7.346 km/s
True Right ascension
07h 28m 29s
True Declination
0° 00' 00"
Sunlit
Object was in daylight at epoch
Visualization orbit readout
Latitude
Unknown
Longitude
Unknown
Altitude
Unknown
Speed
Unknown
Apparent Right ascension
Unknown
Apparent Declination
Unknown
Sunlit
N/A
Visualization observer readout
Local Sidereal Time
21:00:26
Azimuth
Unknown
Elevation
Unknown
Doppler factor
Unknown
Orbital elements
Apogee altitude
1,161.278 km
Perigee altitude
1,046.156 km
Semi-major axis
7,481.854 km
Eccentricity
0.00769
Inclination
82.5617°
RAAN
112.1215°
Arg. of periapsis
328.9846°
True anomaly
31.12932°
Mean anomaly
30.6758°
Eccentric anomaly
30.90218°
Mean motion
3.35374 °/min
Orbital period
107.34 mins
BSTAR
0.0022276
Loading maneuver chart data...
Computing Atmospheric mass density...
Loading historical data...
Loading historical data...
Loading historical data...
Loading historical data...
Loading historical data...
Loading historical data...
Loading historical data...

Documentation

Showing up to 5 results
|